ISS DEB (SEDA-AP)

Last updated on Sun Sep 25 2022 00:02:07 GMT+0000 (Coordinated Universal Time)

1 43870U 98067PU 22267.49955028 .35234745 12952-4 10785-3 0 9993 2 43870 51.6151 64.0114 0003673 292.6594 176.0550 16.58926511214752

Satellite not in orbit